• In Uzbekistan
  • List of Countries
  • For 7 days
  • Water Temperature
  • Satellite Maps
  • Weather Map
  • Weather Widgets
  • user-avatar
    Login

    Hourly Weather Lankaran

    Today, 15 December, Saturday

    Time Temperature Precipitation Wind Pressure Humidity
    00:00 -1°C° 0.1 mm 4 mps 636 mmHg 63%
    01:00 -1°C° 0 mm 4 mps 636 mmHg 60%
    02:00 -1°C° 0 mm 4 mps 636 mmHg 58%
    03:00 -1°C° 0 mm 4 mps 636 mmHg 52%
    04:00 -1°C° 0 mm 3 mps 636 mmHg 52%
    05:00 -1°C° 0 mm 3 mps 636 mmHg 51%
    06:00 -1°C° 0 mm 3 mps 637 mmHg 50%
    07:00 0°C° 0 mm 3 mps 637 mmHg 48%
    08:00 +1°C° 0 mm 3 mps 637 mmHg 45%
    09:00 +3°C° 0 mm 3 mps 638 mmHg 42%
    10:00 +3°C° 0 mm 3 mps 638 mmHg 41%
    11:00 +4°C° 0 mm 3 mps 638 mmHg 40%
    12:00 +5°C° 0 mm 3 mps 638 mmHg 39%
    13:00 +5°C° 0 mm 3 mps 638 mmHg 40%
    14:00 +5°C° 0 mm 3 mps 638 mmHg 42%
    15:00 +5°C° 0 mm 3 mps 638 mmHg 44%
    16:00 +4°C° 0 mm 2 mps 637 mmHg 49%
    17:00 +3°C° 0 mm 2 mps 637 mmHg 54%
    18:00 +3°C° 0 mm 1 mps 637 mmHg 59%
    19:00 +3°C° 0 mm 1 mps 637 mmHg 59%
    20:00 +2°C° 0 mm 1 mps 637 mmHg 59%
    21:00 +2°C° 0 mm 1 mps 637 mmHg 59%
    22:00 +2°C° 0 mm 1 mps 637 mmHg 57%
    23:00 +2°C° 0 mm 1 mps 637 mmHg 56%

    Tomorrow, 16 December, Sunday

    Time Temperature Precipitation Wind Pressure Humidity
    00:00 +1°C° 0 mm 2 mps 636 mmHg 55%
    01:00 +1°C° 0 mm 2 mps 636 mmHg 53%
    02:00 +1°C° 0 mm 2 mps 636 mmHg 52%
    03:00 +1°C° 0 mm 2 mps 636 mmHg 51%
    04:00 +1°C° 0 mm 2 mps 636 mmHg 50%
    05:00 +1°C° 0 mm 2 mps 636 mmHg 49%
    06:00 +1°C° 0 mm 2 mps 636 mmHg 49%
    07:00 +2°C° 0 mm 2 mps 636 mmHg 46%
    08:00 +3°C° 0 mm 3 mps 637 mmHg 43%
    09:00 +4°C° 0 mm 3 mps 637 mmHg 40%
    10:00 +5°C° 0 mm 3 mps 637 mmHg 40%
    11:00 +6°C° 0 mm 4 mps 637 mmHg 39%
    12:00 +7°C° 0 mm 4 mps 637 mmHg 38%
    13:00 +6°C° 0 mm 4 mps 637 mmHg 42%
    14:00 +6°C° 0 mm 4 mps 637 mmHg 45%
    15:00 +5°C° 0 mm 4 mps 637 mmHg 48%
    16:00 +4°C° 0 mm 3 mps 637 mmHg 57%
    17:00 +3°C° 0 mm 3 mps 637 mmHg 65%
    18:00 +1°C° 0 mm 3 mps 637 mmHg 73%
    19:00 +1°C° 0 mm 3 mps 637 mmHg 75%
    20:00 +1°C° 0 mm 3 mps 637 mmHg 77%
    21:00 +1°C° 0 mm 3 mps 637 mmHg 79%
    22:00 +1°C° 0 mm 3 mps 637 mmHg 80%
    23:00 +1°C° 0 mm 3 mps 637 mmHg 82%

    Day after tomorrow, 17 December, Monday

    Time Temperature Precipitation Wind Pressure Humidity
    00:00 +1°C° 0 mm 3 mps 637 mmHg 83%
    01:00 0°C° 0.1 mm 3 mps 637 mmHg 84%
    02:00 0°C° 0.1 mm 3 mps 637 mmHg 84%
    03:00 0°C° 0.1 mm 3 mps 637 mmHg 85%
    04:00 0°C° 0.1 mm 3 mps 637 mmHg 86%
    05:00 0°C° 0.1 mm 3 mps 636 mmHg 87%
    06:00 0°C° 0.1 mm 3 mps 636 mmHg 88%
    07:00 +1°C° 0.1 mm 3 mps 637 mmHg 86%
    08:00 +1°C° 0.1 mm 3 mps 637 mmHg 85%
    09:00 +2°C° 0.1 mm 3 mps 637 mmHg 83%
    10:00 +1°C° 0.2 mm 4 mps 637 mmHg 82%
    11:00 +1°C° 0.2 mm 4 mps 636 mmHg 81%
    12:00 +1°C° 0.2 mm 4 mps 636 mmHg 80%
    13:00 +1°C° 0.3 mm 4 mps 636 mmHg 81%
    14:00 +1°C° 0.3 mm 4 mps 636 mmHg 83%
    15:00 +1°C° 0.3 mm 4 mps 635 mmHg 84%
    16:00 +1°C° 0.9 mm 4 mps 636 mmHg 86%
    17:00 0°C° 0.9 mm 4 mps 636 mmHg 87%
    18:00 0°C° 0.9 mm 4 mps 636 mmHg 89%
    19:00 0°C° 1.8 mm 4 mps 636 mmHg 89%
    20:00 0°C° 1.8 mm 4 mps 636 mmHg 90%
    21:00 0°C° 1.8 mm 4 mps 636 mmHg 90%
    22:00 0°C° 1.6 mm 4 mps 636 mmHg 91%
    23:00 0°C° 1.6 mm 4 mps 635 mmHg 92%

    18 December, Tuesday

    Time Temperature Precipitation Wind Pressure Humidity
    00:00 0°C° 1.6 mm 4 mps 635 mmHg 92%
    01:00 -1°C° 1.1 mm 4 mps 635 mmHg 93%
    02:00 -1°C° 1.1 mm 4 mps 635 mmHg 93%
    03:00 -1°C° 1.1 mm 4 mps 634 mmHg 93%
    04:00 -1°C° 1.1 mm 4 mps 634 mmHg 93%
    05:00 -1°C° 1.1 mm 4 mps 634 mmHg 93%
    06:00 -1°C° 1.1 mm 4 mps 634 mmHg 93%
    07:00 -1°C° 1.1 mm 4 mps 634 mmHg 93%
    08:00 -1°C° 1.1 mm 4 mps 634 mmHg 93%
    09:00 0°C° 1.1 mm 3 mps 635 mmHg 93%
    10:00 0°C° 1.2 mm 3 mps 634 mmHg 92%
    11:00 0°C° 1.2 mm 3 mps 634 mmHg 92%
    12:00 0°C° 1.2 mm 3 mps 634 mmHg 91%
    13:00 0°C° 0.9 mm 3 mps 634 mmHg 91%
    14:00 0°C° 0.9 mm 3 mps 634 mmHg 91%
    15:00 0°C° 0.9 mm 3 mps 634 mmHg 90%
    16:00 -1°C° 0.5 mm 3 mps 634 mmHg 91%
    17:00 -1°C° 0.5 mm 2 mps 635 mmHg 91%
    18:00 -1°C° 0.5 mm 2 mps 635 mmHg 91%
    19:00 -1°C° 0.2 mm 2 mps 635 mmHg 92%
    20:00 -2°C° 0.2 mm 2 mps 635 mmHg 92%
    21:00 -2°C° 0.2 mm 2 mps 636 mmHg 92%
    22:00 -2°C° 0.1 mm 2 mps 636 mmHg 92%
    23:00 -2°C° 0.1 mm 2 mps 636 mmHg 92%

    19 December, Wednesday

    Time Temperature Precipitation Wind Pressure Humidity
    00:00 -2°C° 0.1 mm 2 mps 636 mmHg 92%
    01:00 -2°C° 0.1 mm 2 mps 636 mmHg 92%
    02:00 -2°C° 0.1 mm 2 mps 636 mmHg 91%
    03:00 -2°C° 0.1 mm 2 mps 636 mmHg 91%
    04:00 -2°C° 0.1 mm 2 mps 636 mmHg 91%
    05:00 -2°C° 0.1 mm 2 mps 636 mmHg 91%
    06:00 -3°C° 0.1 mm 2 mps 636 mmHg 91%
    07:00 -2°C° 0.1 mm 2 mps 636 mmHg 88%
    08:00 -1°C° 0.1 mm 2 mps 637 mmHg 86%
    09:00 +1°C° 0.1 mm 2 mps 637 mmHg 84%
    10:00 +1°C° 0 mm 2 mps 637 mmHg 82%
    11:00 +2°C° 0 mm 2 mps 637 mmHg 81%
    12:00 +3°C° 0 mm 2 mps 637 mmHg 79%
    13:00 +3°C° 0 mm 2 mps 637 mmHg 79%
    14:00 +3°C° 0 mm 2 mps 637 mmHg 79%
    15:00 +3°C° 0 mm 2 mps 636 mmHg 79%
    16:00 +2°C° 0 mm 2 mps 636 mmHg 82%
    17:00 +1°C° 0 mm 2 mps 636 mmHg 84%
    18:00 -1°C° 0 mm 2 mps 636 mmHg 87%
    19:00 -1°C° 0 mm 2 mps 636 mmHg 87%
    20:00 -1°C° 0 mm 2 mps 636 mmHg 87%
    21:00 -1°C° 0 mm 2 mps 636 mmHg 87%
    22:00 -1°C° 0.1 mm 2 mps 636 mmHg 87%
    23:00 -1°C° 0.1 mm 2 mps 636 mmHg 87%

    20 December, Thursday

    Time Temperature Precipitation Wind Pressure Humidity
    00:00 -1°C° 0.1 mm 2 mps 635 mmHg 86%
    01:00 -2°C° 0.1 mm 2 mps 635 mmHg 85%
    02:00 -2°C° 0.1 mm 2 mps 635 mmHg 84%
    03:00 -2°C° 0.1 mm 2 mps 635 mmHg 83%
    04:00 -2°C° 0.1 mm 2 mps 635 mmHg 83%
    05:00 -2°C° 0.1 mm 2 mps 634 mmHg 83%
    06:00 -2°C° 0.1 mm 2 mps 634 mmHg 83%
    07:00 -1°C° 0.1 mm 2 mps 635 mmHg 82%
    08:00 +1°C° 0.1 mm 2 mps 635 mmHg 82%
    09:00 +1°C° 0.1 mm 3 mps 635 mmHg 81%
    10:00 +1°C° 0.1 mm 3 mps 635 mmHg 81%
    11:00 +2°C° 0.1 mm 3 mps 634 mmHg 80%
    12:00 +2°C° 0.1 mm 3 mps 634 mmHg 79%
    13:00 +2°C° 0.1 mm 3 mps 634 mmHg 80%
    14:00 +2°C° 0.1 mm 3 mps 634 mmHg 80%
    15:00 +3°C° 0.1 mm 2 mps 633 mmHg 81%
    16:00 +2°C° 0.2 mm 2 mps 633 mmHg 83%
    17:00 +2°C° 0.2 mm 2 mps 633 mmHg 86%
    18:00 +1°C° 0.2 mm 2 mps 633 mmHg 88%
    19:00 +1°C° 0.3 mm 2 mps 634 mmHg 88%
    20:00 +1°C° 0.3 mm 2 mps 634 mmHg 88%
    21:00 +1°C° 0.3 mm 2 mps 634 mmHg 88%
    22:00 +1°C° 0.2 mm 2 mps 634 mmHg 87%
    23:00 +1°C° 0.2 mm 2 mps 634 mmHg 85%
    Show more